Regional Weather Roundup
Issued by NWS

Home | Current Version | Previous Version | Graphics & Text | Print | Product List | Glossary On
Versions: 1 2 3 4 5 6 7 8 9 10 11 12 13 14 15 16 17 18 19 20 21 22 23 24 25 26 27 28 29 30 31 32 33 34 35 36 37 38 39 40 41 42 43 44 45 46 47 48 49 50
000
ASUS43 KLMK 031610
RWRKY
KENTUCKY REGIONAL WEATHER ROUNDUP
NATIONAL WEATHER SERVICE LOUISVILLE KY
1200 PM EDT MON AUG 03 2015

NOTE "FAIR" INDICATES FEW OR NO CLOUDS BELOW 12,000 FEET
WITH NO SIGNIFICANT WEATHER AND/OR OBSTRUCTIONS TO VISIBILITY.

KYZ001>023-026-027-061>063-070>075-031700-
WESTERN AND SOUTH CENTRAL KENTUCKY

CITY           SKY/WX    TMP DP  RH WIND       PRES   REMARKS
PADUCAH        SUNNY     89  72  56 SW6       29.92R HX  96
HENDERSON      SUNNY     88  72  58 W6        29.88S HX  94
OWENSBORO      SUNNY     88  72  58 W7        29.90R HX  94
HOPKINSVILLE   SUNNY     86  73  64 W14       29.93F HX  94
BOWLING GREEN  PTSUNNY   85  69  58 SW8       29.95R
GLASGOW        SUNNY    N/A N/A N/A SW13      29.94F
$$

KYZ024-025-028>034-038-045-046-053-031700-
NORTH CENTRAL KENTUCKY

CITY           SKY/WX    TMP DP  RH WIND       PRES   REMARKS
LOUISVILLE/SDF MOSUNNY   82  64  54 S12       29.90F
LOUISVILLE/LOU SUNNY     80  64  58 SE12      29.91F
FORT KNOX      SUNNY     82  68  61 S9        29.89F
$$

KYZ035>037-039>044-047>052-055>060-089>105-031700-
NORTHEAST KENTUCKY

CITY           SKY/WX    TMP DP  RH WIND       PRES   REMARKS
LEXINGTON      SUNNY     79  64  60 SE10      29.95S
COVINGTON      SUNNY     78  64  61 S18G26    29.89
FRANKFORT      SUNNY     78  63  59 S12       29.93S
$$

KYZ054-064>069-076>088-106>120-031700-
SOUTHEAST KENTUCKY

CITY           SKY/WX    TMP DP  RH WIND       PRES   REMARKS
JACKSON        MOSUNNY   78  62  57 CALM      29.98S
LONDON         MOSUNNY   80  61  52 VRB5      29.99S
SOMERSET       SUNNY     79  63  57 S3        29.99S
MIDDLESBORO    SUNNY     80  65  61 CALM      30.01S
MONTICELLO     MOSUNNY   81  68  64 CALM      30.01S
$$




USA.gov is the U.S. government's official web portal to all federal, state and local government web resources and services.